Lapse_Rate
8.9 8.8 9.1 9.4 9.3 9.3 9.0 8.6 9.1 8.3 8.5 8.9 9.2 9.4 9.4 9.3 9.2 9.4 9.5 9.4 8.9 7.8 7.0 6.3 6.9 6.8 6.4 6.8 7.1 7.0 7.1 8.4 8.6 7.3 6.6 6.6 6.2 6.3 6.5 6.3 5.8 6.5 6.4 6.1 5.9 5.2 6.1
8.4 8.9 9.0 9.0 9.3 8.9 8.8 8.9 9.0 9.0 8.3 8.2 8.6 8.7 8.6 9.2 9.3 9.4 9.4 9.3 9.2 8.0 6.8 5.7 6.7 7.4 6.2 6.5 8.1 7.6 6.6 6.6 7.0 6.8 6.1 6.1 6.5 6.0 6.0 6.2 6.4 6.1 6.3 6.3 6.0 5.7 5.9
9.3 9.3 9.5 9.0 9.1 9.0 9.2 9.3 8.4 8.0 8.0 8.3 8.6 8.7 8.8 9.2 9.1 9.3 9.4 9.3 8.9 8.6 7.2 5.8 6.9 7.2 7.5 6.4 8.2 8.5 8.0 6.9 7.5 7.2 6.3 6.1 7.1 6.3 6.2 6.5 6.1 6.2 6.5 6.5 6.2 5.9 6.4
9.4 9.0 8.5 8.8 9.5 9.6 8.8 8.5 8.3 8.3 8.3 8.8 9.2 8.4 8.1 8.7 8.2 8.4 9.2 9.0 8.0 8.0 7.5 6.0 6.6 7.6 6.8 8.3 7.7 8.4 7.5 7.3 8.4 8.6 7.5 7.3 6.5 6.5 6.8 6.6 6.5 6.5 6.5 6.5 6.5 6.3 6.1
9.3 8.6 8.9 9.5 9.3 8.1 8.3 9.2 8.6 8.7 9.0 8.4 8.4 8.3 8.3 8.3 8.3 8.2 8.1 8.3 7.7 7.4 7.8 6.3 6.9 6.9 6.9 7.4 7.7 7.7 7.1 7.5 7.5 7.9 7.9 7.7 6.2 6.5 6.9 6.5 6.5 6.5 6.5 6.5 6.5 6.3 6.5
9.0 9.1 9.0 9.1 8.2 8.1 8.2 8.2 8.6 8.8 8.4 8.4 8.4 8.3 7.8 8.4 8.6 8.4 7.8 7.7 7.1 7.6 6.7 6.7 7.6 6.9 7.5 7.4 7.6 8.1 7.2 7.6 7.4 6.7 6.9 6.7 6.6 6.5 6.5 6.5 6.5 6.5 6.5 6.5 6.5 6.5 6.5
8.8 8.9 9.2 8.9 8.1 8.3 8.7 9.0 9.0 8.7 9.2 9.1 8.3 8.3 8.4 9.3 8.1 8.0 7.1 5.6 6.0 6.0 6.0 6.9 7.2 7.1 7.1 8.0 8.3 7.5 7.5 7.5 7.1 6.5 6.5 6.5 6.5 6.5 6.5 6.5 6.5 6.5 6.5 6.5 6.5 6.5 6.5
9.0 9.1 9.2 8.0 8.2 9.2 9.2 9.2 9.3 8.7 9.2 9.1 8.5 9.0 9.2 8.5 7.9 7.4 6.5 6.6 6.8 6.3 6.7 7.4 7.6 6.8 7.5 8.1 7.1 7.4 7.7 6.6 6.2 6.5 6.5 6.5 6.5 6.5 6.5 6.5 6.5 6.5 6.5 6.5 6.5 6.5 6.5
9.2 9.2 8.9 8.2 9.2 9.3 9.2 9.0 9.0 9.2 9.2 9.3 9.3 9.0 8.3 7.9 7.7 6.7 5.9 6.7 6.1 6.6 6.7 7.0 7.1 7.5 7.1 7.4 7.0 6.7 7.5 6.7 6.5 6.5 6.5 6.5 6.5 6.5 6.5 6.5 6.5 6.5 6.5 6.5 6.5 6.5 6.5
9.0 9.3 9.0 8.3 9.0 9.0 9.0 8.5 8.6 9.2 9.3 9.3 9.0 8.3 8.1 8.1 6.8 6.9 6.7 6.3 6.4 6.1 6.5 6.5 6.6 7.3 7.4 7.0 6.6 7.6 7.4 6.7 6.5 6.5 6.5 6.5 6.5 6.5 6.5 6.5 6.5 6.5 6.5 6.5 6.5 6.5 6.5
9.3 9.3 8.3 8.2 8.5 8.7 8.7 9.1 8.5 8.4 9.3 9.3 8.7 8.4 8.0 7.6 6.9 6.9 7.7 5.7 6.2 5.9 6.5 6.5 6.6 8.5 6.7 6.5 6.5 6.7 7.4 7.2 6.5 6.5 6.5 6.5 6.5 6.5 6.5 6.5 6.5 6.5 6.5 6.5 6.5 6.5 6.5
9.4 9.0 8.1 8.0 8.4 8.5 9.0 9.2 8.8 9.3 9.4 9.3 8.3 8.2 8.0 6.8 6.5 7.0 7.5 6.6 6.3 6.5 6.5 6.5 6.7 6.5 6.5 6.5 6.7 6.5 7.0 7.2 7.1 6.5 6.5 6.5 6.4 6.5 6.5 6.5 6.5 6.5 6.5 6.5 6.5 6.5 6.5
9.3 8.9 7.9 8.3 8.8 8.5 8.7 9.3 9.2 9.4 9.3 8.7 8.0 7.8 7.3 7.2 6.9 7.2 6.6 6.3 6.5 6.5 6.5 6.5 6.5 6.5 6.5 6.5 6.5 6.5 6.5 6.5 6.5 6.5 6.5 6.5 6.5 6.5 6.5 6.5 6.5 6.5 6.5 6.5 6.5 6.5 6.5
9.3 9.0 8.5 8.8 8.5 8.6 9.0 9.2 9.3 9.1 8.3 7.9 7.6 7.3 6.1 7.4 7.2 7.3 6.0 6.4 6.5 6.5 6.5 6.5 6.5 6.5 6.5 6.5 6.5 6.5 6.5 6.5 6.5 6.5 6.5 6.5 6.5 6.5 6.5 6.5 6.5 6.5 6.5 6.5 6.5 6.5 6.5
9.2 9.3 9.1 8.3 9.4 9.0 9.1 9.2 9.3 8.3 7.3 6.5 6.6 5.3 6.9 5.9 6.4 5.8 6.3 6.5 6.5 6.5 6.5 6.5 6.5 6.5 6.5 6.5 6.5 6.5 6.5 6.5 6.5 6.5 6.5 6.5 6.5 6.5 6.5 6.5 6.5 6.5 6.5 6.5 6.5 6.5 6.5
9.2 9.2 9.2 8.5 9.4 8.8 9.1 9.2 9.2 8.2 7.2 6.7 5.0 6.2 7.1 7.0 7.1 6.5 6.5 6.5 6.5 6.5 6.5 6.5 6.5 6.5 6.5 6.5 6.5 6.5 6.5 6.5 6.5 6.5 6.5 6.5 6.5 6.5 6.5 6.5 6.5 6.5 6.5 6.5 6.5 6.5 6.5
9.4 9.0 9.0 9.1 9.3 8.8 9.0 9.1 8.3 7.7 7.1 6.9 4.0 6.4 6.7 6.8 6.1 6.8 6.5 6.5 6.5 6.8 6.7 6.5 6.5 6.5 6.5 6.5 6.5 6.5 6.5 6.5 6.5 6.5 6.4 6.5 6.5 6.5 6.5 6.5 6.5 6.5 6.5 6.5 6.5 6.5 6.5
8.8 9.1 9.2 9.1 8.8 8.5 8.8 8.7 7.6 7.5 7.2 5.0 4.4 6.4 6.0 5.8 6.4 6.7 6.5 6.5 6.8 6.5 6.9 6.5 6.5 6.5 6.5 6.5 6.5 6.5 6.5 6.5 5.8 6.3 6.5 6.5 6.5 6.5 6.5 6.5 6.5 6.5 6.5 6.5 6.5 6.5 6.5
8.8 9.3 9.3 9.1 8.8 8.6 8.7 7.8 7.1 7.3 7.5 4.6 4.7 5.4 6.8 6.7 6.5 6.5 6.5 6.5 6.5 6.5 6.5 6.5 6.5 6.5 6.5 6.5 6.5 6.5 6.5 6.3 6.0 6.5 6.5 6.5 6.5 6.5 6.5 6.5 6.5 6.5 6.5 6.5 6.5 6.5 6.5
9.1 9.3 9.3 9.3 9.4 9.3 8.5 7.6 6.5 6.4 6.1 4.7 4.5 6.5 5.3 6.4 6.7 6.5 6.5 6.5 6.5 6.6 6.5 6.4 6.5 6.4 6.5 6.5 6.5 6.5 6.5 6.5 6.2 6.5 6.2 6.0 6.5 6.5 6.5 6.5 6.5 6.5 6.5 6.5 6.5 6.5 6.5
9.2 9.3 9.3 9.3 9.2 8.7 8.3 7.7 6.4 6.1 5.3 6.2 5.6 6.1 6.3 6.5 6.5 6.5 6.5 6.5 6.5 6.5 6.4 6.3 6.5 6.5 6.5 6.5 6.5 6.5 6.5 6.5 6.4 6.5 6.4 6.5 6.5 6.5 6.5 6.5 6.5 6.5 6.5 6.5 6.5 6.5 6.5
9.0 9.3 9.3 9.3 9.4 8.7 8.9 7.8 7.0 6.7 5.8 4.6 6.3 6.5 6.7 5.5 6.6 6.5 6.5 6.5 6.5 6.5 6.5 6.5 6.5 6.5 6.5 6.5 6.5 6.5 6.5 6.5 6.5 6.5 6.5 6.5 6.5 6.5 6.5 6.5 6.5 6.5 6.5 6.5 6.5 6.5 6.5
8.9 9.1 9.3 9.3 9.3 9.4 8.8 8.5 7.3 6.9 6.6 6.2 6.0 6.4 6.4 5.8 6.5 6.5 6.5 6.5 6.5 6.5 6.3 6.2 6.5 6.5 6.5 6.5 6.1 5.7 5.3 5.4 6.3 6.5 6.5 6.5 6.5 6.5 6.5 6.5 6.5 6.5 6.5 6.5 6.5 6.5 6.5
8.7 8.7 9.2 9.3 9.3 9.4 9.1 9.4 8.0 8.1 7.7 6.3 6.3 6.1 6.6 6.5 6.5 6.5 6.5 6.5 6.5 6.5 6.5 6.3 5.9 6.5 6.6 6.7 5.8 5.4 5.4 5.9 5.9 6.4 5.9 6.5 6.5 6.5 6.5 6.5 6.5 6.5 6.5 6.5 6.5 6.5 6.5
8.5 8.5 9.0 8.8 9.2 9.3 9.4 9.4 9.2 9.1 7.6 6.1 5.4 6.1 6.5 6.5 6.1 6.4 6.5 6.5 6.0 5.7 6.4 6.4 6.2 6.0 5.7 6.5 6.5 6.5 6.5 6.5 6.5 6.5 6.5 6.5 6.5 6.5 6.5 6.5 6.5 6.5 6.5 6.5 6.5 6.5 6.5
8.3 8.2 9.2 8.9 9.0 9.3 9.4 9.3 9.4 9.3 8.4 6.2 5.0 5.5 6.0 6.6 6.4 6.0 6.5 6.4 6.5 6.5 6.5 6.5 6.4 5.7 5.9 6.5 6.5 6.5 6.5 6.5 6.5 6.5 6.5 6.5 6.5 6.5 6.5 6.5 6.5 6.5 6.5 6.3 6.5 6.5 6.5
8.4 8.3 9.2 8.8 9.0 9.1 9.3 9.4 9.5 9.4 8.8 7.0 5.1 5.4 5.0 6.6 5.8 5.8 6.4 6.4 6.2 6.3 6.5 6.5 6.3 6.3 6.2 6.5 6.5 6.5 6.5 6.5 6.5 6.5 6.5 6.5 6.5 6.5 6.5 6.5 6.5 6.5 6.4 5.9 6.5 6.5 6.4
8.4 8.1 9.1 8.9 8.9 8.9 9.4 9.6 9.5 9.6 9.1 7.5 5.7 5.2 4.8 5.7 5.2 6.5 5.8 6.1 6.0 5.7 6.5 5.9 6.3 6.4 6.4 6.5 6.5 6.5 6.5 6.5 6.5 6.5 6.5 6.5 6.5 6.5 6.5 6.5 6.5 6.0 6.3 6.5 6.2 5.4 6.0
8.1 8.0 9.1 9.0 9.0 9.3 9.3 9.4 9.3 9.2 9.4 8.7 5.9 5.4 5.1 4.7 4.8 4.1 5.4 6.2 5.8 6.1 4.8 5.1 6.3 6.0 6.2 6.5 6.5 6.5 6.5 6.5 6.5 6.5 6.5 6.5 6.5 6.5 6.5 6.5 6.1 5.8 6.2 4.7 4.9 5.2 5.6
Wind_Speed
20 21 23 26 27 24 25 25 27 23 24 24 23 22 22 23 19 21 21 20 22 21 21 13 10 8 2 4 6 3 4 25 12 6 8 8 4 5 6 6 6 5 7 11 9 8 5
23 22 20 22 25 25 26 25 28 29 25 24 24 24 23 22 23 21 21 20 22 20 22 22 12 8 3 6 4 10 8 7 7 8 8 6 5 8 4 6 5 3 2 3 5 7 5
24 26 26 25 26 28 30 31 29 28 27 24 22 24 23 21 20 21 22 20 21 21 18 22 15 7 6 9 4 7 2 7 9 10 6 9 1 4 4 2 3 3 4 7 6 6 5
25 26 26 27 29 29 29 30 28 27 24 23 22 21 24 22 18 20 21 18 20 22 18 24 20 7 5 6 18 4 4 4 4 4 13 6 0 1 2 1 2 4 3 2 7 10 8
25 27 29 29 29 28 27 29 28 26 26 24 22 20 20 20 18 19 19 21 22 21 19 21 10 6 5 6 9 9 6 4 5 2 2 10 5 0 2 4 1 2 3 5 7 9 6
26 28 28 30 30 29 28 29 28 27 25 24 21 19 19 19 21 15 17 20 22 16 10 9 4 3 5 8 6 8 6 6 4 5 5 5 3 3 2 4 5 5 4 4 6 5 2
25 27 30 30 31 29 29 28 27 25 24 22 20 18 20 17 14 12 9 4 3 3 6 5 9 3 1 7 7 11 7 7 5 3 4 4 3 5 9 6 4 5 6 5 4 5 2
26 26 29 30 29 28 28 27 26 25 23 21 21 21 18 17 15 13 5 3 1 3 5 12 9 14 10 10 7 10 7 6 6 6 5 4 2 5 8 9 10 5 7 5 6 5 4
26 28 28 29 27 28 28 27 25 25 24 23 22 19 18 19 12 9 5 5 9 8 4 9 6 14 7 4 6 13 10 7 8 6 6 5 2 7 5 2 7 2 4 3 5 7 6
26 29 28 28 28 28 27 26 25 25 25 24 21 21 21 19 11 2 3 5 11 9 3 10 6 9 6 5 4 6 6 6 4 9 6 1 1 3 4 3 3 0 4 5 4 4 4
26 26 28 28 28 28 27 27 25 24 25 23 21 21 26 20 4 3 1 12 7 4 4 13 9 9 7 2 13 8 2 1 6 6 6 6 3 5 3 2 5 3 6 5 4 3 5
26 27 29 28 28 27 28 28 27 27 26 23 24 27 28 8 3 8 9 7 1 1 4 6 8 11 8 10 2 7 4 1 2 4 5 4 3 3 6 2 4 5 4 3 3 2 2
26 27 28 28 27 28 29 29 29 29 27 26 28 29 22 5 2 9 8 3 3 3 2 6 8 15 12 9 6 9 9 5 4 5 2 2 2 3 3 4 2 4 5 2 2 2 6
25 27 28 27 27 27 28 30 31 31 32 30 28 30 7 4 6 6 3 2 2 2 3 8 15 16 7 12 9 9 7 4 3 3 4 5 3 8 5 5 6 6 5 4 5 3 4
25 28 29 29 29 29 29 31 32 33 34 35 25 2 2 4 12 3 1 2 2 4 2 8 14 6 5 4 7 7 5 5 5 4 5 4 3 4 9 3 5 3 3 4 1 2 2
24 25 28 27 29 28 30 32 33 34 36 20 2 2 3 6 6 3 2 4 4 5 9 12 4 3 7 7 6 5 8 6 5 8 1 1 4 5 4 4 4 5 4 2 2 2 5
24 27 28 27 28 29 30 33 34 35 33 13 3 3 4 9 3 1 1 3 3 8 12 2 5 7 10 6 6 7 11 6 9 9 6 1 2 2 2 5 6 4 5 4 2 3 3
24 26 28 26 28 29 31 32 34 35 32 8 2 3 4 5 3 1 3 3 4 4 9 5 4 8 12 6 8 3 9 2 9 10 6 3 4 3 8 6 8 5 6 6 4 4 4
24 25 27 27 26 28 30 32 33 34 28 3 2 1 1 2 2 1 3 3 4 4 3 3 1 4 14 5 6 2 5 5 8 7 12 6 1 1 1 3 1 5 6 8 3 2 8
22 24 25 26 26 26 28 31 34 35 31 2 2 2 2 2 1 1 1 2 4 5 4 5 11 14 7 1 5 7 4 4 4 3 8 6 4 5 5 3 3 3 3 6 9 4 8
20 21 23 24 26 26 26 29 33 35 34 1 1 1 1 2 2 2 1 5 7 6 6 5 8 9 6 5 6 5 7 3 5 2 4 4 2 1 5 6 4 6 9 9 10 15 10
20 20 21 22 23 25 26 26 29 31 30 3 2 2 3 3 4 5 5 3 6 5 5 7 9 12 10 4 2 8 7 4 4 2 3 2 2 2 5 9 10 9 13 13 15 18 19
18 19 20 20 21 22 24 24 25 27 20 2 2 2 2 4 3 1 3 2 3 2 7 6 5 7 10 3 5 4 4 3 7 7 5 5 3 1 4 5 6 5 7 12 5 5 6
17 18 19 19 19 20 21 21 21 21 18 2 2 2 2 2 2 1 0 2 5 3 4 4 8 4 2 4 5 6 6 6 6 4 5 5 3 1 3 4 1 4 5 6 10 7 10
16 17 17 19 18 18 19 20 19 18 19 2 2 2 2 2 2 4 2 5 5 5 5 4 5 2 2 2 2 3 2 2 3 4 5 4 3 1 1 2 6 3 2 2 6 6 5
16 17 16 18 16 17 17 19 18 17 17 4 2 2 2 2 2 5 1 5 3 1 2 2 2 3 4 2 2 3 3 3 3 3 5 5 3 1 2 2 3 2 2 2 4 4 4
17 18 17 18 16 16 16 18 17 16 16 6 2 2 2 2 3 4 2 3 2 3 3 2 1 2 2 1 2 2 2 1 3 5 4 4 3 5 5 4 6 8 6 5 3 5 2
16 18 17 19 17 16 15 17 15 15 14 6 4 0 2 2 4 4 5 2 3 2 2 3 2 0 1 1 2 2 1 2 2 6 6 6 5 3 5 4 6 4 4 3 4 3 3
16 17 16 18 18 18 17 16 14 14 12 12 2 3 2 3 4 3 4 2 2 2 4 2 1 2 2 2 1 2 1 3 1 2 4 3 6 4 7 6 6 3 3 1 1 3 2
Wind_Direction
333 334 343 339 337 335 326 324 325 322 320 319 315 315 316 319 320 317 314 311 304 308 309 270 220 227 210 213 247 244 6 189 182 172 201 213 214 197 183 197 242 231 240 248 253 288 281
334 339 337 334 326 324 329 329 318 318 321 313 311 322 319 316 316 315 311 306 304 303 307 312 201 198 225 232 194 165 134 119 179 182 210 211 218 207 208 240 203 258 178 296 305 309 320
339 341 337 330 331 339 333 325 331 326 326 326 324 311 314 313 314 314 306 301 304 298 299 312 193 178 231 230 157 138 193 184 194 192 197 208 282 170 197 242 303 106 21 342 308 283 255
337 336 339 341 334 331 333 331 328 326 322 312 319 321 311 314 317 314 307 305 299 296 291 290 190 175 245 233 244 152 225 250 238 195 201 164 26 120 102 271 29 53 43 319 247 235 234
339 344 340 335 334 334 331 330 333 327 326 323 322 317 313 312 320 319 311 306 296 285 284 284 169 171 230 153 196 173 193 201 198 147 144 134 74 349 99 110 73 208 232 228 293 240 206
340 345 335 334 336 334 331 331 330 329 327 326 329 326 320 317 317 323 323 310 284 280 277 254 84 128 247 201 165 178 201 205 165 132 100 137 140 137 113 158 198 197 228 244 234 298 220
346 337 336 338 338 338 335 335 334 331 330 331 332 327 318 325 333 335 340 340 360 205 227 154 178 244 193 157 138 172 182 146 132 128 150 178 157 180 196 193 243 271 299 274 270 327 325
338 341 335 339 339 340 340 337 336 333 329 335 325 320 324 326 324 308 310 245 285 103 311 215 224 229 116 130 127 174 179 136 137 175 147 122 182 189 194 204 232 266 276 278 298 351 23
342 339 345 342 342 340 339 340 335 333 328 328 325 324 319 316 312 301 211 210 138 83 278 192 219 207 158 143 139 179 174 131 151 162 160 144 138 207 220 274 201 237 268 292 268 339 349
343 345 344 343 341 340 340 337 333 332 328 328 325 320 319 319 297 208 256 115 125 101 255 158 222 195 150 166 113 167 195 143 151 158 157 112 173 113 132 222 145 26 34 68 48 46 258
347 341 344 342 339 340 340 336 337 333 330 330 325 321 318 313 281 221 225 123 132 84 203 150 150 136 158 178 127 197 213 338 160 144 122 228 162 138 138 208 162 179 93 72 40 12 353
343 342 343 341 342 343 340 339 338 338 335 329 325 316 314 296 196 216 175 120 101 247 235 139 140 156 126 157 86 133 145 30 83 148 136 124 82 102 185 131 81 127 69 45 43 59 312
343 345 348 345 343 345 341 341 340 339 332 324 319 317 318 261 288 136 131 140 70 250 303 132 144 145 141 136 119 155 154 142 135 113 138 87 133 133 78 128 113 94 79 10 348 217 237
345 344 350 347 348 345 344 342 342 337 332 322 316 313 293 261 116 152 110 90 137 238 63 129 135 136 126 125 134 149 144 143 269 84 105 141 316 161 186 172 173 163 162 161 218 216 275
349 347 348 348 349 348 346 344 343 341 326 311 309 355 14 17 129 73 316 48 295 345 143 126 112 117 129 121 131 147 166 160 198 180 126 125 261 151 164 155 125 191 184 185 46 300 42
350 349 348 354 350 351 349 347 346 343 342 1 65 34 41 45 78 35 8 14 332 310 117 138 87 183 134 146 122 124 166 193 193 195 154 1 111 144 149 162 228 157 170 98 4 281 281
351 347 349 356 353 350 352 349 349 352 350 339 48 40 344 331 41 38 5 23 321 314 163 173 144 121 129 142 128 151 183 167 178 189 160 166 84 91 145 197 187 180 205 204 143 176 222
347 352 355 358 354 353 355 351 351 359 355 23 47 47 316 350 49 335 305 23 358 298 268 278 125 112 147 145 145 142 184 225 182 156 167 146 114 183 214 232 200 180 194 161 135 258 247
350 355 357 357 357 358 355 354 353 357 1 334 54 90 281 9 42 13 334 7 255 314 344 95 126 90 147 133 137 179 90 357 166 153 167 148 104 48 38 8 175 196 210 200 220 38 230
351 356 358 357 356 355 357 356 353 353 355 31 83 40 306 239 218 19 50 329 304 242 24 50 106 112 117 121 117 144 107 41 57 93 134 121 151 172 184 182 99 204 221 196 191 222 266
351 355 358 355 356 359 4 360 356 353 351 33 15 258 240 324 70 305 258 2 12 35 359 19 127 154 112 86 77 98 92 87 55 103 70 96 170 286 265 253 197 222 241 240 237 248 250
347 355 353 355 357 358 358 0 360 357 350 77 30 360 349 283 135 37 19 328 5 16 19 53 78 61 68 83 215 148 133 156 185 174 111 108 258 61 288 251 237 246 245 239 242 253 255
342 351 349 351 357 359 353 355 1 0 9 355 333 296 271 290 333 124 226 254 113 45 16 40 71 87 67 38 70 83 102 115 144 141 165 154 146 91 272 312 337 275 235 215 208 206 228
335 345 346 346 352 355 355 352 358 360 10 332 306 299 290 273 81 316 302 32 66 56 111 25 44 84 53 90 78 54 55 75 97 109 141 156 161 216 266 333 266 248 229 202 212 233 221
332 341 342 340 345 349 352 348 350 356 356 350 292 292 305 285 208 303 141 119 62 47 65 56 34 29 346 45 141 93 126 125 197 194 153 132 164 283 301 267 275 257 105 200 192 275 226
329 340 341 334 340 341 345 342 344 346 351 348 258 287 282 288 214 307 59 135 144 124 88 62 22 347 44 100 82 167 190 163 139 136 172 153 157 129 343 289 258 258 267 136 116 271 221
329 339 335 329 334 335 339 333 338 340 347 344 268 9 265 272 277 334 141 174 121 113 108 128 151 20 28 78 145 170 267 186 166 171 165 159 160 218 232 263 283 252 258 131 352 266 260
328 335 332 326 330 330 332 325 329 329 339 350 286 128 347 302 284 330 341 75 83 68 160 185 106 25 30 122 123 215 227 278 9 157 172 173 164 189 189 223 270 215 116 221 243 298 310
324 333 329 320 326 325 324 319 320 324 327 333 293 324 325 241 286 327 291 328 58 115 130 161 283 152 170 101 167 62 297 329 264 264 155 205 193 183 188 212 235 273 226 13 277 259 312